Regional Weather Roundup
Issued by NWS

Home | Current Version | Previous Version | Text Only | Print | Product List | Glossary Off
Versions: 1 2 3 4 5 6 7 8 9 10 11 12 13 14 15 16 17 18 19 20 21 22 23 24 25 26 27 28 29 30 31 32 33 34 35 36 37 38 39 40 41 42 43 44 45 46 47 48 49 50

098
ASUS43 KLMK 201102
RWRKY
KENTUCKY REGIONAL WEATHER ROUNDUP
NATIONAL WEATHER SERVICE LOUISVILLE KY
600 AM EST FRI JAN 20 2017

NOTE "FAIR" INDICATES FEW OR NO CLOUDS BELOW 12,000 FEET
WITH NO SIGNIFICANT WEATHER AND/OR OBSTRUCTIONS TO VISIBILITY.

KYZ001>023-026-027-061>063-070>075-201200-
WESTERN AND SOUTH CENTRAL KENTUCKY

CITY           SKY/WX    TMP DP  RH WIND       PRES   REMARKS
PADUCAH        CLOUDY    54  50  86 SW9       29.66S
HENDERSON      CLOUDY    55  50  82 SW13      29.66R
OWENSBORO      LGT RAIN  56  54  93 SW8       29.68R
HOPKINSVILLE   CLOUDY    55  55 100 S9        29.70S
BOWLING GREEN  CLOUDY    57  54  89 SW9       29.72R
GLASGOW        NOT AVBL
$$

KYZ024-025-028>034-038-045-046-053-201200-
NORTH CENTRAL KENTUCKY

CITY           SKY/WX    TMP DP  RH WIND       PRES   REMARKS
LOUISVILLE/SDF CLOUDY    57  53  86 SW9       29.66R
LOUISVILLE/LOU CLOUDY    56  53  90 SW7       29.67R
FORT KNOX      CLOUDY    56  56  99 SW10      29.66R
$$

KYZ035>037-039>044-047>052-055>060-089>105-201200-
NORTHEAST KENTUCKY

CITY           SKY/WX    TMP DP  RH WIND       PRES   REMARKS
LEXINGTON      CLOUDY    56  53  90 SW12      29.68R
COVINGTON      LGT RAIN  53  53 100 W10       29.62R FOG
FRANKFORT      CLOUDY    56  52  86 SW10      29.66R
$$

KYZ054-064>069-076>088-106>120-201200-
SOUTHEAST KENTUCKY

CITY           SKY/WX    TMP DP  RH WIND       PRES   REMARKS
JACKSON        CLOUDY    53  50  89 VRB7      29.72R
LONDON         CLOUDY    54  50  86 SW6       29.73S
SOMERSET       NOT AVBL
MIDDLESBORO    CLOUDY    53  51  92 W3        29.78R
MONTICELLO     CLOUDY    55  54  96 NE6       29.75R
$$





USA.gov is the U.S. government's official web portal to all federal, state and local government web resources and services.